N7DTY Weather Reports


Display with metric or nautical units.
time (UTC)temp
F
wind
direction
speed
MPH
gust
MPH
rain 1hr
in
rain 24hr
in
rain mn
in
humidity
%
barometer
mb
20260903074528 59 168 1.0 8.0 0.00 0.02 0.00 71 1006.3
20260903073032 60 143 3.0 15.0 0.00 0.02 0.00 72 1006.1
20260903071527 60 191 3.0 8.0 0.00 0.02 0.00 73 1005.9
20260903070022 60 153 2.0 10.0 0.00 0.02 0.00 73 1005.8
20260903064528 60 146 1.0 8.0 0.00 0.02 0.02 73 1006.0
20260903063021 60 181 2.0 11.0 0.00 0.02 0.02 73 1005.9
20260903061524 60 188 2.0 11.0 0.00 0.02 0.02 73 1005.9
20260903060020 60 153 0.0 14.0 0.00 0.02 0.02 74 1005.8
20260903054521 60 123 3.0 17.0 0.00 0.02 0.02 74 1005.8
20260903053018 60 173 4.0 14.0 0.00 0.02 0.02 75 1005.9
20260903051518 60 136 1.0 10.0 0.00 0.02 0.02 76 1005.7
20260903050017 60 184 5.0 14.0 0.00 0.02 0.02 75 1005.6
20260903044514 60 200 4.0 12.0 0.00 0.02 0.02 75 1005.4
20260903043015 60 145 4.0 13.0 0.00 0.02 0.02 75 1005.1
20260903041516 60 79 3.0 17.0 0.00 0.02 0.02 74 1005.0
20260903040013 61 180 5.0 14.0 0.00 0.02 0.02 75 1004.8
20260903034512 61 167 4.0 21.0 0.00 0.02 0.02 74 1004.2
20260903033014 62 167 5.0 17.0 0.00 0.02 0.02 73 1003.8
20260903031510 62 180 4.0 13.0 0.00 0.02 0.02 72 1003.5
20260903030011 63 175 6.0 16.0 0.00 0.02 0.02 70 1002.8
20260903024509 63 194 4.0 18.0 0.00 0.02 0.02 70 1002.4
20260903023009 63 200 2.0 15.0 0.00 0.02 0.02 71 1002.0
20260903021513 62 211 0.0 11.0 0.00 0.02 0.02 72 1002.0
20260903020008 62 195 2.0 17.0 0.01 0.02 0.02 72 1002.1
20260903014507 62 160 4.0 18.0 0.01 0.02 0.02 73 1002.1
20260903013006 62 194 5.0 14.0 0.02 0.02 0.02 75 1002.0
20260903011506 59 159 3.0 10.0 0.02 0.02 0.02 81 1002.0
20260903010004 59 193 2.0 8.0 0.01 0.01 0.01 84 1002.1
20260903004600 60 196 2.0 10.0 0.01 0.01 0.01 82 1002.5
20260903004502 60 173 3.0 10.0 0.01 0.01 0.01 81 1002.5
20260903003058 61 108 3.0 12.0 0.00 0.00 0.00 77 1002.6
20260903001557 61 154 5.0 15.0 0.00 0.00 0.00 77 1002.7
20260903000055 62 139 3.0 14.0 0.00 0.00 0.00 74 1002.9
20260902234604 62 169 4.0 16.0 0.00 0.00 0.00 74 1002.7
20260902233053 63 198 4.0 18.0 0.00 0.00 0.00 72 1002.8
20260902231555 64 152 4.0 15.0 0.00 0.00 0.00 67 1002.7
20260902230051 65 126 2.0 14.0 0.00 0.00 0.00 67 1002.7
20260902224550 65 208 4.0 15.0 0.00 0.00 0.00 66 1002.5
20260902223053 66 178 5.0 20.0 0.00 0.00 0.00 63 1002.4
20260902221550 65 156 5.0 14.0 0.00 0.00 0.00 65 1002.3
20260902220048 63 157 5.0 12.0 0.00 0.00 0.00 70 1002.5
20260902214546 64 161 5.0 12.0 0.00 0.00 0.00 72 1002.7
20260902213045 69 182 5.0 15.0 0.00 0.00 0.00 56 1002.6
20260902211544 68 217 1.0 15.0 0.00 0.00 0.00 59 1002.4
20260902210043 68 173 2.0 9.0 0.00 0.00 0.00 59 1002.7
20260902204541 69 181 1.0 7.0 0.00 0.00 0.00 59 1002.8
20260902203039 69 161 3.0 9.0 0.00 0.00 0.00 58 1002.8
20260902201547 69 192 2.0 5.0 0.00 0.00 0.00 58 1003.0
20260902200037 68 163 3.0 11.0 0.00 0.00 0.00 58 1003.2
20260902194535 69 212 3.0 12.0 0.00 0.00 0.00 58 1003.4
20260902193034 69 171 2.0 10.0 0.00 0.00 0.00 60 1003.4
20260902191535 68 186 3.0 8.0 0.00 0.00 0.00 60 1003.6
20260902190033 70 184 2.0 8.0 0.00 0.00 0.00 56 1003.6
20260902184531 69 209 3.0 11.0 0.00 0.00 0.00 55 1003.8
20260902183030 69 170 2.0 7.0 0.00 0.00 0.00 56 1003.8
20260902181531 69 79 4.0 15.0 0.00 0.00 0.00 56 1004.0
20260902180033 69 112 3.0 18.0 0.00 0.00 0.00 55 1004.1
20260902174526 70 156 1.0 7.0 0.00 0.00 0.00 55 1004.0
20260902173038 67 51 2.0 6.0 0.00 0.00 0.00 60 1004.2
20260902171520 67 187 3.0 9.0 0.00 0.00 0.00 61 1004.5
20260902170016 66 188 3.0 12.0 0.00 0.00 0.00 64 1004.7
20260902164512 65 86 2.0 16.0 0.00 0.00 0.00 65 1004.8
20260902163010 64 167 3.0 14.0 0.00 0.00 0.00 67 1005.0
20260902161508 64 212 3.0 15.0 0.00 0.00 0.00 68 1005.1
20260902160008 63 146 4.0 15.0 0.00 0.00 0.00 70 1005.1
20260902154504 63 202 2.0 9.0 0.00 0.00 0.00 71 1005.3
20260902153007 63 150 1.0 10.0 0.00 0.00 0.00 72 1005.1
20260902151504 63 127 2.0 6.0 0.00 0.00 0.00 71 1005.0
20260902150002 63 180 2.0 9.0 0.00 0.00 0.00 70 1005.1
20260902144600 63 170 4.0 12.0 0.00 0.00 0.00 72 1005.4
20260902143055 63 210 3.0 14.0 0.00 0.00 0.00 72 1005.4
20260902141555 62 198 2.0 17.0 0.00 0.00 0.00 73 1005.5
20260902140049 62 120 2.0 10.0 0.00 0.00 0.00 73 1005.6
20260902134549 62 184 2.0 12.0 0.00 0.00 0.00 73 1005.8
20260902133055 62 186 3.0 9.0 0.00 0.00 0.00 74 1005.8
20260902131548 62 183 3.0 12.0 0.00 0.00 0.00 74 1005.8
20260902130042 62 167 4.0 12.0 0.00 0.00 0.00 74 1005.7
20260902124541 62 173 3.0 10.0 0.00 0.00 0.00 74 1005.6
20260902123046 62 205 3.0 10.0 0.00 0.00 0.00 73 1005.7
20260902121538 62 167 3.0 14.0 0.00 0.00 0.00 72 1005.8
20260902120042 62 153 1.0 10.0 0.00 0.00 0.00 73 1006.0
20260902114548 62 180 3.0 12.0 0.00 0.00 0.00 72 1006.1
20260902113038 62 178 2.0 6.0 0.00 0.00 0.00 73 1006.3
20260902111541 62 223 0.0 5.0 0.00 0.00 0.00 72 1006.3
20260902110053 62 221 1.0 7.0 0.00 0.00 0.00 72 1006.4
20260902104530 63 195 0.0 8.0 0.00 0.00 0.00 71 1006.5
20260902103029 63 217 1.0 8.0 0.00 0.00 0.00 70 1006.6
20260902101527 63 171 2.0 6.0 0.00 0.00 0.00 71 1006.7
20260902100026 63 167 2.0 10.0 0.00 0.00 0.00 72 1006.8
20260902094526 63 258 2.0 8.0 0.00 0.00 0.00 71 1007.0
20260902093021 63 191 2.0 10.0 0.00 0.00 0.00 72 1007.1
20260902091520 62 188 1.0 10.0 0.00 0.00 0.00 74 1007.2
20260902090017 62 230 1.0 10.0 0.00 0.00 0.00 75 1007.5
20260902084514 63 167 3.0 11.0 0.00 0.00 0.00 75 1007.5
20260902083016 62 304 2.0 11.0 0.00 0.00 0.00 76 1007.6
20260902081512 63 272 4.0 11.0 0.00 0.00 0.00 76 1007.8
20260902080011 63 173 4.0 14.0 0.00 0.00 0.00 76 1007.7